Home > Weather > Escondido > Past weeks

Flag for U.S.A. Weather for the Past 2 Weeks in Escondido, California, U.S.A.

Now
59 °F

Clear.


Feels Like: 57 °F
Forecast: 46 / 75 °F
Wind: 12 mph from Northeast

Location: Ramona Airport

Current Time: Feb 6, 2016 at 12:03:54 AM

Latest Report: Feb 5, 2016 at 10:53 PM


Visibility: 10 mi

Pressure: 30.25 "Hg

Humidity: 23%

Dew point: 21 °F

Location of EscondidoLocation

Historic Weather in Escondido — Graph

°F

Escondido Temperature Yesterday

Maximum temperature yesterday: 69 °F (at 12:53 PM)
Minimum temperature yesterday: 55 °F (at 1:53 AM)
Average temperature yesterday: 61 °F

High & Low Weather Summary for the Past Weeks

 TemperatureHumidityPressure
High72 °F (Jan 28, 12:53 PM)100% (Jan 24, 7:53 AM)30.34 "Hg (Jan 24, 7:53 AM)
Low27 °F (Feb 2, 4:53 AM)12% (Jan 26, 2:53 PM)29.64 "Hg (Jan 31, 2:53 PM)
Average51 °F59%30.11 "Hg
* Reported Jan 21 10:53 PM — Feb 5 10:53 PM, Escondido, Weather by CustomWeather, © 2016

Note: Actual official high and low records may vary slightly from our data, if they occured in-between our weather recording intervals... More about our weather records

Advertising

Escondido Weather History for the Previous 24 Hours

 ConditionsComfort  
Time TempWeatherWind HumidityBarometerVisibility
10:53 PM
Fri, Feb 5
59 °FClear.12 mph23%30.25 "Hg10 mi
9:53 PM58 °FClear.10 mph24%30.25 "Hg10 mi
8:53 PM58 °FClear.13 mph25%30.26 "Hg10 mi
7:53 PM60 °FClear.15 mph22%30.25 "Hg10 mi
6:53 PM61 °FClear.18 mph21%30.25 "Hg10 mi
5:53 PM62 °FClear.18 mph20%30.24 "Hg10 mi
4:53 PM64 °FSunny.13 mph19%30.23 "Hg10 mi
3:53 PM67 °FSunny.17 mph19%30.22 "Hg10 mi
2:53 PM68 °FSunny.15 mph19%30.22 "Hg10 mi
1:53 PM69 °FSunny.20 mph17%30.22 "Hg10 mi
12:53 PM69 °FSunny.21 mph17%30.23 "Hg10 mi
11:53 AM68 °FSunny.23 mph17%30.26 "Hg10 mi
10:53 AM68 °FSunny.18 mph18%30.28 "Hg10 mi
9:53 AM66 °FSunny.17 mph19%30.28 "Hg10 mi
8:53 AM63 °FSunny.20 mph19%30.28 "Hg10 mi
7:53 AM59 °FSunny.14 mph23%30.27 "Hg10 mi
6:53 AM56 °FSunny.13 mph22%30.27 "Hg10 mi
5:53 AM56 °FClear.13 mph21%30.24 "Hg10 mi
4:53 AM57 °FClear.17 mph20%30.23 "Hg10 mi
3:53 AM57 °FClear.16 mph20%30.23 "Hg10 mi
2:53 AM57 °FClear.15 mph18%30.22 "Hg10 mi
1:53 AM55 °FClear.8 mph21%30.24 "Hg10 mi
12:53 AM56 °FClear.12 mph19%30.24 "Hg10 mi
Weather by CustomWeather, © 2016

See weather overviewHow to use our weather pages